Weather History for Lanai City, HI

Change the Weather History Date:

Tuesday, March 11, 2014

  Actual Average Record
Temperature  
Mean Temperature 72 °F -  
Max Temperature 79 °F 76 °F 80 °F (1998)
Min Temperature 64 °F 59 °F 53 °F (1954)
Cooling Degree Days 6    
Growing Degree Days 22 (Base 50)    
Moisture  
Dew Point 61 °F    
Average Humidity 73    
Maximum Humidity 90    
Minimum Humidity 55    
Precipitation  
Precipitation 0.00 in - - ()
Sea Level Pressure  
Sea Level Pressure 30.01 in    
Wind  
Wind Speed 13 mph (ENE)    
Max Wind Speed 23 mph    
Max Gust Speed 29 mph    
Visibility 10 miles    
Events      
Averages and records for this station are not official NWS values.
T = Trace of Precipitation, MM = Missing Value Source: NWS Daily Summary

Daily Weather History Graph

Daily Weather History Graph

Search for Another Location

Airport:

Trip Planner

Search our weather history database for the weather conditions in past years. The results will help you decide how hot, cold, wet, or windy it might be!

Date:

Astronomy

Mar. 11, 2014 Rise Set
Actual Time 6:39 AM HST 6:36 PM HST
Civil Twilight 6:17 AM HST 6:58 PM HST
Nautical Twilight 5:51 AM HST 7:23 PM HST
Astronomical Twilight 5:26 AM HST 7:49 PM HST
Moon 2:47 PM HST (3/11) 3:14 AM HST (3/11)
Length of Visible Light 12h 40m
Length of Day
11h 56m
Waxing Gibbous, 80% of the Moon is Illuminated
Mar 11
Waxing Gibbous
Mar 16
Full
Mar 23
Last Quarter
Mar 30
New
Apr 6
First Quarter

Hourly Weather History & Observations

Time (HST) Temp. Dew Point Humidity Pressure Visibility Wind Dir Wind Speed Gust Speed Precip Events Conditions
12:56 AM 65.8 °F 63.0 °F 90% 30.03 in 10.0 mi NE 15.0 mph - N/A   Clear
1:56 AM 64.9 °F 61.9 °F 90% 30.01 in 10.0 mi NE 15.0 mph - N/A   Clear
2:56 AM 64.9 °F 61.9 °F 90% 30.01 in 10.0 mi NE 15.0 mph - N/A   Clear
3:56 AM 65.8 °F 59.9 °F 81% 29.99 in 10.0 mi NE 12.7 mph - N/A   Clear
4:56 AM 65.8 °F 57.9 °F 76% 29.98 in 10.0 mi NE 12.7 mph - N/A   Clear
5:56 AM 66.9 °F 57.9 °F 73% 30.00 in 10.0 mi NNE 15.0 mph 24.2 mph N/A   Clear
6:56 AM 65.8 °F 59.0 °F 79% 30.02 in 10.0 mi ENE 16.1 mph 21.9 mph N/A   Clear
7:56 AM 70.0 °F 57.9 °F 65% 30.02 in 10.0 mi ENE 8.1 mph - N/A   Clear
8:56 AM 73.9 °F 56.8 °F 55% 30.03 in 10.0 mi Calm Calm - N/A   Clear
9:56 AM 74.8 °F 59.9 °F 60% 30.03 in 10.0 mi SSW 4.6 mph - N/A   Clear
10:56 AM 77.0 °F 63.0 °F 62% 30.03 in 10.0 mi Variable 4.6 mph - N/A   Partly Cloudy
11:56 AM 77.9 °F 61.0 °F 56% 30.01 in 10.0 mi SW 5.8 mph - N/A   Clear
12:56 PM 79.0 °F 61.9 °F 56% 29.98 in 10.0 mi WSW 8.1 mph - N/A   Clear
1:56 PM 79.0 °F 61.9 °F 56% 29.97 in 9.0 mi SE 6.9 mph - N/A   Clear
2:56 PM 77.0 °F 61.9 °F 59% 29.95 in 10.0 mi SSE 10.4 mph - N/A   Partly Cloudy
3:56 PM 77.0 °F 63.9 °F 64% 29.94 in 10.0 mi South 8.1 mph - N/A   Mostly Cloudy
4:38 PM 73.4 °F 60.8 °F 65% 30.01 in 10.0 mi NE 18.4 mph - N/A   Scattered Clouds
4:56 PM 72.9 °F 59.9 °F 64% 29.96 in 10.0 mi NE 16.1 mph 21.9 mph N/A   Clear
5:56 PM 70.0 °F 59.9 °F 70% 29.97 in 10.0 mi NE 17.3 mph - N/A   Clear
6:56 PM 66.9 °F 61.0 °F 81% 30.00 in 10.0 mi NE 16.1 mph - N/A   Clear
7:56 PM 66.9 °F 63.0 °F 87% 30.01 in 10.0 mi NE 16.1 mph - N/A   Clear
8:56 PM 66.9 °F 63.9 °F 90% 30.01 in 10.0 mi ENE 23.0 mph 26.5 mph N/A   Clear
9:56 PM 68.0 °F 63.0 °F 84% 30.04 in 10.0 mi NE 10.4 mph - N/A   Partly Cloudy
10:11 PM 69.8 °F 62.6 °F 78% 30.10 in 10.0 mi Variable 3.5 mph - N/A   Mostly Cloudy
10:56 PM 68.0 °F 61.9 °F 81% 30.03 in 10.0 mi SSE 10.4 mph 19.6 mph N/A   Overcast
11:42 PM 66.2 °F 62.6 °F 88% 30.08 in 10.0 mi ENE 12.7 mph - N/A   Scattered Clouds
11:56 PM 66.9 °F 61.9 °F 84% 30.00 in 10.0 mi NE 23.0 mph 28.8 mph N/A   Clear